Location: Deurze
(52.9838°N, 6.6090°E)
Time: 19:16:15
(UTC+00:00)

CZ-4B R/B - Pass Details

Date: 11 March 2026
Orbit: 808 x 879 km, 98.9° (Epoch: 20 April)

Event Time Altitude Azimuth Distance (km) Brightness Sun altitude
Exits shadow 20:05:39 26° 185° (S) 1,558 4.4 -23.4°
Maximum altitude 20:08:38 62° 258° (WSW) 920 3.5 -23.8°
Drops below altitude 10° 20:13:58 10° 339° (NNW) 2,437 6.2 -24.5°
Sets 20:16:23 0° 343° (NNW) 3,384 7.0 -24.8°
